Regional Weather Roundup
Issued by NWS

Home | Current Version | Previous Version | Text Only | Print | Product List | Glossary On
Versions: 1 2 3 4 5 6 7 8 9 10 11 12 13 14 15 16 17 18 19 20 21 22 23 24 25 26 27 28 29 30 31 32 33 34 35 36 37 38 39 40 41 42 43 44 45 46 47 48 49 50
000
ASUS45 KBOI 130910
RWRID

IDAHO REGIONAL WEATHER ROUNDUP
NATIONAL WEATHER SERVICE BOISE ID
200 AM MST SAT FEB 13 2016

NOTE: "FAIR" INDICATES FEW OR NO CLOUDS BELOW 12000 FEET
WITH NO SIGNIFICANT WEATHER AND/OR OBSTRUCTIONS TO VISIBILITY

IDZ012-014-131000-
SOUTHWEST IDAHO


CITY           SKY/WX    TMP DP  RH WIND       PRES   REMARKS
BOISE          CLOUDY    35  33  92 NW5       30.19R FOG     WCI  31
CALDWELL       CLOUDY    33  31  92 W8        30.23R FOG     WCI  26
MOUNTAIN HOME  CLOUDY    36  30  78 E8        30.16F WCI  30
$$

IDZ016-017-131000-
SOUTHCENTRAL IDAHO


CITY           SKY/WX    TMP DP  RH WIND       PRES   REMARKS
BURLEY         CLOUDY    31  28  89 N3        30.16F
JEROME         CLOUDY    31  26  82 NE12      30.17F WCI  22
TWIN FALLS     CLOUDY    41  27  57 S13       30.16F
$$

IDZ019>023-131000-
SOUTHEAST IDAHO


CITY           SKY/WX    TMP DP  RH WIND       PRES   REMARKS
IDAHO FALLS    CLOUDY    25  22  88 SE8       30.16F WCI  16
POCATELLO      CLOUDY    27  22  81 E8        30.20F WCI  19
REXBURG        CLOUDY    28  25  88 CALM      30.17F
$$

IDZ006-010-011-018-031-032-131000-
CENTRAL IDAHO MOUNTAINS


CITY           SKY/WX    TMP DP  RH WIND       PRES   REMARKS
MCCALL         CLOUDY    34  28  79 NW9       30.13R WCI  27
HAILEY         CLOUDY    34  30  86 NW6       30.19F WCI  29
STANLEY          N/A     35  27  72 CALM      30.15F
SALMON         CLOUDY    28  27  93 CALM      30.12F
CHALLIS        MOCLDY    22  20  92 VRB3      30.11F
$$

IDZ002-004-006-007-026-131000-
NORTHERN IDAHO


CITY           SKY/WX    TMP DP  RH WIND       PRES   REMARKS
LEWISTON       CLOUDY    47  42  83 SW5       30.15F
LOWELL           N/A     41  39  93 N3        30.20R
COEUR D`ALENE  CLOUDY    43  39  87 SW7       30.08S
MULLAN PASS    SNOW      29  28  96 VRB3      30.02F VSB 1/2
$$



USA.gov is the U.S. government's official web portal to all federal, state and local government web resources and services.